Temperature
17 17 18 17 17 17 16 15 15 14 14 13 12 11 11 10 10 10 9 9 9 9 9 9 9 8 8 8 7 7 7 7 7 7 7 7 7 7 7 7 6 6 6
16 17 17 17 17 16 16 15 15 14 14 13 12 12 11 10 10 10 9 9 9 9 9 9 8 8 8 8 7 7 7 6 6 6 5 6 6 6 6 6 6 6 5
16 16 17 17 17 16 16 15 15 14 14 13 12 12 11 10 10 10 9 9 9 9 9 9 8 8 8 7 7 7 7 6 6 6 5 5 5 5 5 5 5 5 4
15 14 15 16 16 16 16 15 15 14 14 13 12 12 11 11 10 10 10 9 9 9 9 9 8 8 8 7 7 7 6 6 5 5 5 4 4 3 3 4 4 3 3
14 14 15 15 16 15 15 15 14 14 13 13 12 12 11 10 10 10 10 9 9 9 9 9 8 8 7 7 7 6 6 6 5 5 4 4 3 3 2 2 3 3 2
13 13 13 14 15 15 14 14 14 13 13 12 12 11 11 11 10 10 10 10 9 9 9 8 8 8 7 7 6 6 6 6 5 5 4 3 3 2 1 1 2 2 2
12 12 13 14 14 14 14 14 13 13 13 12 12 11 11 11 10 10 10 10 9 9 9 8 8 7 7 7 6 6 6 5 5 4 4 3 3 2 1 0 0 0 1
12 12 12 13 14 14 13 13 13 13 12 12 11 11 11 10 10 10 10 10 9 9 8 8 7 7 7 6 6 5 5 5 4 4 3 3 2 2 1 0 -1 -1 -0
13 12 12 13 13 13 13 13 12 12 12 12 11 11 11 10 10 10 10 9 9 8 8 8 7 7 6 6 5 5 5 4 4 3 3 2 2 1 1 0 -1 -2 -2
13 13 13 13 13 13 13 12 12 12 12 11 11 11 11 10 10 10 9 9 9 8 8 7 7 6 6 5 5 5 4 4 3 3 3 2 1 1 0 -0 -1 -2 -2
14 14 14 13 13 13 12 12 12 11 11 11 11 11 10 10 10 9 9 9 8 8 7 7 6 6 5 5 4 4 4 3 3 2 2 2 1 0 -0 -1 -1 -2 -3
14 14 14 14 13 13 13 12 12 11 11 11 11 10 10 10 9 9 9 8 8 7 7 6 6 5 5 4 4 4 3 3 2 2 1 1 1 0 -1 -1 -2 -2 -3
14 14 14 14 14 13 13 12 12 12 11 11 10 10 10 9 9 9 8 8 7 7 6 6 5 5 5 4 4 3 3 2 2 1 1 1 0 -0 -1 -2 -2 -3 -3
14 14 14 14 14 13 13 12 12 11 11 10 10 10 9 9 9 8 8 7 7 6 6 5 5 5 4 4 3 3 2 2 2 1 1 0 -0 -1 -1 -2 -3 -3 -4
14 14 14 14 14 13 13 12 12 11 11 10 10 9 9 8 8 8 7 7 6 6 5 5 4 4 4 3 3 2 2 1 1 0 0 -0 -1 -1 -2 -3 -3 -4 -4
14 14 14 14 14 14 13 12 12 11 11 10 10 9 8 8 7 7 7 6 6 5 5 4 4 3 3 3 2 2 1 0 -0 -0 -1 -1 -1 -2 -2 -3 -4 -4 -5
14 14 14 14 14 13 13 12 12 11 10 10 9 8 8 7 7 6 6 6 5 5 4 4 3 3 3 2 2 1 0 -0 -1 -1 -2 -2 -2 -3 -3 -4 -4 -5 -5
14 14 14 14 13 13 12 12 11 11 10 9 8 8 7 7 6 6 5 5 5 4 4 3 3 2 2 2 1 1 -0 -1 -1 -2 -2 -3 -3 -4 -4 -5 -5 -5 -5
14 14 14 13 13 12 12 11 11 10 9 8 8 7 7 6 6 5 5 4 4 3 3 3 2 2 1 1 1 -0 -1 -2 -2 -3 -3 -3 -4 -4 -5 -5 -5 -6 -6
13 13 13 13 12 12 11 11 10 9 8 8 7 7 6 6 5 5 4 4 3 3 2 2 2 1 1 0 -0 -1 -2 -2 -3 -3 -4 -4 -4 -5 -5 -6 -6 -6 -6
13 12 12 12 11 11 10 10 9 8 8 7 6 6 5 5 5 4 4 3 3 2 2 1 1 1 0 -0 -1 -1 -2 -3 -4 -4 -4 -5 -5 -5 -6 -6 -6 -6 -6
12 12 11 11 11 10 9 9 8 7 7 6 6 5 5 4 4 3 3 3 2 2 1 0 0 -0 -1 -1 -2 -2 -3 -4 -4 -5 -5 -5 -6 -6 -6 -6 -6 -6 -7
11 11 11 10 10 9 8 8 7 7 6 5 5 4 4 4 3 3 2 2 1 1 0 -1 -1 -1 -2 -2 -3 -3 -4 -4 -5 -5 -6 -6 -6 -6 -7 -7 -7 -7 -7
11 10 10 9 8 8 7 7 6 6 5 5 4 4 3 3 2 2 1 1 0 -0 -1 -2 -2 -3 -3 -3 -4 -5 -5 -5 -6 -6 -6 -6 -7 -7 -7 -7 -7 -8 -8
10 9 9 8 7 7 6 6 5 5 4 4 3 3 3 2 2 1 1 0 -0 -1 -2 -2 -3 -3 -4 -4 -5 -6 -6 -6 -7 -7 -7 -7 -7 -7 -8 -8 -8 -8 -9
9 8 7 7 6 6 5 5 4 4 3 3 3 2 2 1 1 0 -0 -0 -1 -1 -2 -3 -3 -4 -4 -5 -6 -6 -7 -7 -7 -7 -7 -7 -8 -8 -8 -9 -9 -9 -9
Wind_Speed
12 10 11 10 11 11 13 15 16 16 14 12 11 10 9 7 6 6 7 7 6 6 6 4 4 3 2 2 2 2 3 4 5 6 6 5 3 3 2 2 3 4 5
11 11 11 11 12 12 14 15 16 16 16 13 11 9 8 6 6 6 6 7 7 6 5 5 4 3 2 2 1 1 2 2 3 4 5 4 3 0 3 5 5 6 6
13 12 13 12 12 12 13 13 15 16 16 14 10 8 6 5 5 6 5 6 7 7 6 5 4 4 3 2 1 1 2 3 2 3 3 4 4 7 5 5 6 6 7
10 11 12 13 12 11 11 13 14 15 15 15 13 14 11 9 9 8 7 7 7 7 7 6 5 4 3 3 2 1 1 3 3 2 3 4 4 5 6 5 6 7 9
7 10 11 12 11 10 10 11 13 14 15 15 15 15 12 9 8 8 9 8 7 7 7 7 6 5 3 3 2 2 2 3 4 4 4 5 5 7 6 9 10 9 9
5 8 9 10 10 10 10 11 13 14 14 14 14 14 13 12 11 11 10 8 6 6 7 6 5 5 4 3 3 3 3 3 4 4 4 5 5 6 7 10 13 13 11
5 8 10 11 11 12 11 12 13 13 14 14 13 13 13 13 13 12 10 9 7 6 7 6 6 5 4 4 3 3 4 4 5 6 5 6 7 7 8 10 12 14 13
5 8 10 11 11 12 12 13 13 13 13 13 12 12 11 10 9 10 9 9 7 7 7 7 6 5 5 4 4 4 4 5 6 7 7 7 7 7 8 9 11 13 13
6 8 10 11 11 12 12 13 13 13 13 13 12 12 11 10 10 10 9 7 6 6 8 7 6 5 5 5 4 5 5 6 6 7 8 8 8 8 8 9 9 10 13
5 8 9 10 11 11 11 12 12 13 12 12 11 9 11 10 10 9 9 8 8 7 7 7 6 5 5 5 5 6 6 7 7 7 9 9 8 8 8 9 10 11 13
5 7 9 10 10 11 11 12 12 12 12 12 11 11 11 10 10 9 9 9 8 8 8 7 6 6 6 6 6 7 7 8 9 9 10 11 11 10 10 10 10 11 12
4 6 8 10 11 12 12 13 13 13 13 12 12 11 11 11 10 10 9 9 8 8 7 7 6 6 6 7 8 8 9 10 11 11 11 12 10 13 12 11 12 12 13
4 6 8 10 11 12 13 13 13 13 12 12 12 12 12 11 11 10 9 9 8 8 7 7 7 7 7 7 8 9 10 11 11 12 12 13 13 14 13 13 13 13 13
5 6 7 9 10 11 12 13 13 13 12 12 13 13 13 12 11 10 9 9 8 8 7 7 7 7 7 7 8 9 10 11 12 12 13 14 14 15 15 14 15 14 14
6 7 8 8 9 10 11 12 12 12 13 13 13 13 11 10 10 9 9 8 8 7 7 7 7 7 7 7 8 8 10 11 13 13 14 14 16 18 16 14 14 14 13
6 6 7 7 9 10 10 11 12 12 13 13 12 11 11 10 10 9 9 8 7 7 7 7 8 8 7 9 12 12 12 12 13 14 14 15 16 18 20 22 22 20 17
6 6 6 7 7 8 9 10 10 11 12 12 11 11 11 10 10 9 8 8 8 7 8 8 8 10 10 11 13 15 13 14 15 15 15 13 13 16 15 17 20 21 23
5 5 5 5 5 6 7 8 9 10 10 10 10 10 10 10 9 8 8 8 7 7 8 8 9 10 10 12 14 15 14 15 15 15 16 16 16 14 15 15 16 17 18
4 4 4 5 5 6 7 8 9 9 9 9 10 10 10 9 8 8 8 7 6 7 8 8 9 10 11 12 14 15 12 13 15 15 15 15 16 18 20 18 18 19 17
5 5 5 6 6 6 8 8 8 8 8 8 8 8 8 8 8 7 6 5 6 7 7 8 9 11 12 12 14 15 11 13 13 13 14 16 18 20 21 17 17 17 17
6 6 7 6 6 7 8 8 7 7 7 7 7 7 7 6 6 5 5 5 6 7 8 10 10 11 12 13 15 15 11 12 13 12 12 12 18 20 22 21 17 19 19
7 7 7 7 6 7 7 7 7 6 7 7 7 6 5 4 4 4 5 5 6 8 9 10 11 10 10 12 13 16 16 16 15 14 13 13 20 22 24 20 20 23 20
7 7 7 8 6 6 6 7 6 7 7 6 5 4 4 3 4 4 5 6 6 7 8 9 10 10 9 10 15 17 18 19 15 14 19 22 24 23 19 19 21 18 12
7 7 8 8 6 6 5 6 7 6 6 5 4 3 3 3 4 4 5 6 7 8 8 9 11 11 11 10 9 10 12 14 14 14 17 21 21 18 17 16 13 10 10
7 7 7 7 7 6 6 6 6 6 5 4 2 2 2 4 5 6 6 8 9 9 10 10 11 12 12 13 16 15 13 13 14 15 13 12 11 10 10 10 10 9 8
8 7 7 7 7 7 6 5 5 4 4 2 2 2 3 4 5 6 8 9 12 14 16 18 17 15 18 22 23 23 23 24 23 18 13 12 11 11 11 11 10 9 9
Wind_Direction
231 209 201 197 195 194 193 190 186 185 182 182 183 183 185 182 181 180 185 186 187 183 185 186 186 195 218 243 274 297 302 316 327 312 312 302 282 288 268 269 282 291 298
221 205 198 193 193 190 189 186 186 183 183 184 183 185 176 176 172 165 171 176 177 173 174 184 184 183 190 198 212 271 300 319 335 328 322 320 297 242 270 289 291 297 296
227 208 197 192 190 188 186 183 183 181 183 178 169 155 148 148 164 169 166 168 171 170 172 177 177 173 187 190 193 235 285 305 315 324 320 317 313 318 288 285 292 296 297
229 211 197 191 188 184 180 179 177 179 179 176 176 175 180 184 186 176 167 163 168 168 167 168 169 169 174 177 181 214 264 284 296 296 276 282 294 296 304 292 287 293 296
226 207 196 188 181 173 173 173 173 176 177 181 182 184 187 183 168 163 163 163 161 163 163 165 167 169 174 182 187 210 242 264 281 285 284 278 275 267 276 295 302 299 292
214 198 184 176 171 167 168 170 173 175 178 181 183 187 182 171 164 168 168 168 162 163 166 168 172 177 182 189 203 222 241 258 265 269 268 272 275 281 279 286 298 301 302
199 185 179 178 174 172 171 173 175 175 178 182 184 186 181 176 176 175 177 174 171 174 175 176 181 185 189 198 211 231 248 255 261 266 271 270 269 277 279 283 292 297 299
195 190 187 184 180 178 177 177 179 177 178 181 182 181 177 177 179 179 177 180 179 177 174 180 187 191 197 206 221 240 250 258 261 266 268 269 270 270 269 276 289 296 296
193 192 189 189 186 184 184 183 181 179 179 180 177 176 176 176 172 171 173 174 172 166 175 184 191 197 206 218 231 247 255 261 264 268 269 268 270 269 269 270 271 279 292
194 193 193 193 192 190 187 187 187 184 180 179 176 174 175 173 169 169 171 171 170 170 178 189 197 206 215 226 238 253 259 263 266 266 269 271 272 272 269 267 268 267 274
200 196 195 194 192 190 188 189 190 186 182 181 177 175 173 170 171 173 173 173 174 179 187 195 204 215 225 235 244 253 261 265 270 269 269 272 274 275 273 271 269 269 271
211 199 195 192 193 194 193 192 191 190 188 183 180 178 173 172 175 176 175 176 180 186 193 200 211 222 233 243 252 260 262 266 271 273 274 274 276 273 274 273 272 274 274
217 202 197 198 199 198 197 196 195 193 188 183 182 179 178 179 182 179 177 180 185 190 197 208 219 228 236 245 254 262 267 269 272 274 274 275 276 277 277 277 277 278 279
224 212 207 205 203 202 200 198 197 193 187 185 186 186 186 185 184 180 180 184 189 196 205 215 226 232 237 246 255 262 266 270 271 271 271 272 272 274 278 280 280 280 280
232 219 213 207 202 201 201 199 196 192 188 188 190 191 187 182 180 180 183 185 193 203 211 222 232 239 238 238 243 253 259 266 271 272 270 270 269 271 273 275 277 279 278
235 222 212 207 203 200 199 196 195 191 188 191 192 186 181 178 180 183 184 188 198 207 216 228 239 247 250 251 258 268 273 272 273 275 275 275 272 272 273 274 277 279 280
229 218 210 205 202 199 195 193 190 184 187 191 188 182 180 180 181 181 187 196 206 215 226 237 246 255 260 259 267 272 278 279 278 278 279 279 277 278 278 281 282 280 278
214 204 195 187 183 180 180 177 174 177 182 185 184 180 179 180 180 185 196 206 215 226 237 246 254 262 267 266 273 279 279 278 278 278 279 281 282 282 283 283 281 279 277
192 175 165 160 156 158 160 159 163 170 176 182 182 180 178 177 181 193 204 213 224 236 245 253 260 266 272 270 276 282 284 280 280 280 279 279 281 283 286 286 285 285 283
147 142 137 137 139 144 151 155 160 167 175 177 177 174 176 179 189 201 211 221 232 245 254 258 264 269 274 277 278 282 281 282 284 283 280 277 278 284 288 288 288 287 289
135 135 133 131 133 143 150 153 157 166 165 162 161 165 173 184 194 204 216 229 241 252 260 268 270 271 273 277 276 278 279 281 286 286 285 283 285 287 290 291 288 287 292
139 138 133 126 131 145 151 150 153 150 148 151 155 162 171 175 193 213 230 242 251 262 269 275 278 277 275 272 276 278 279 283 285 286 287 287 289 291 293 293 291 293 296
143 142 137 130 132 144 153 149 144 145 148 151 155 160 171 190 212 232 245 255 258 264 273 277 280 283 283 279 278 282 284 285 283 284 286 289 291 294 293 291 292 294 291
149 147 144 140 138 143 145 139 139 147 152 155 158 169 196 224 238 245 250 256 261 267 273 277 281 285 285 284 284 284 287 286 285 286 287 289 289 288 286 289 291 286 282
151 152 151 146 142 142 137 136 143 149 153 157 169 201 234 251 259 257 256 259 262 263 270 277 281 285 286 285 288 291 292 293 291 295 291 287 286 286 286 287 288 286 284
151 150 148 145 143 143 138 137 143 152 158 178 214 243 257 264 268 275 276 253 255 268 267 269 274 279 280 288 292 293 294 296 296 296 290 288 289 289 291 292 292 289 285
Height
1503 1504 1506 1508 1511 1513 1516 1518 1521 1525 1528 1531 1534 1538 1541 1543 1546 1547 1549 1550 1551 1551 1551 1551 1551 1550 1550 1549 1548 1546 1545 1543 1541 1539 1536 1534 1531 1529 1528 1528 1526 1525 1522
1496 1497 1500 1503 1506 1508 1511 1514 1517 1520 1524 1527 1531 1534 1538 1540 1542 1544 1546 1547 1548 1548 1548 1548 1548 1548 1547 1546 1545 1544 1543 1541 1539 1538 1535 1533 1532 1529 1527 1525 1524 1522 1520
1490 1492 1494 1497 1500 1503 1506 1509 1512 1516 1520 1523 1527 1531 1534 1537 1539 1541 1542 1544 1545 1545 1546 1546 1546 1545 1545 1544 1543 1542 1541 1540 1538 1536 1536 1534 1531 1528 1524 1522 1520 1518 1516
1484 1486 1488 1492 1495 1499 1502 1505 1509 1512 1516 1520 1523 1527 1530 1532 1535 1537 1539 1541 1542 1542 1543 1543 1543 1543 1542 1541 1540 1540 1538 1537 1536 1534 1532 1532 1529 1526 1522 1519 1516 1513 1510
1480 1481 1484 1487 1491 1495 1498 1502 1505 1509 1512 1516 1520 1524 1527 1530 1532 1534 1536 1537 1538 1539 1540 1540 1540 1540 1539 1539 1538 1537 1536 1534 1533 1531 1529 1527 1525 1523 1520 1515 1512 1509 1506
1477 1478 1481 1484 1488 1491 1495 1499 1502 1506 1509 1513 1517 1520 1523 1526 1528 1531 1533 1534 1535 1536 1537 1537 1537 1537 1536 1536 1535 1534 1532 1531 1529 1528 1526 1524 1522 1520 1517 1512 1507 1503 1500
1475 1476 1478 1481 1485 1488 1492 1496 1500 1503 1507 1510 1514 1517 1520 1523 1526 1528 1530 1531 1532 1533 1534 1534 1534 1534 1533 1533 1532 1530 1529 1527 1526 1524 1522 1520 1517 1515 1512 1508 1503 1498 1494
1473 1474 1476 1479 1483 1486 1490 1494 1497 1500 1504 1507 1511 1514 1517 1520 1522 1524 1526 1528 1529 1530 1530 1531 1531 1531 1530 1529 1528 1527 1525 1523 1521 1519 1517 1515 1512 1510 1507 1504 1499 1493 1488
1472 1473 1475 1478 1481 1485 1488 1491 1494 1498 1501 1504 1507 1511 1514 1516 1519 1521 1523 1525 1526 1526 1527 1527 1527 1527 1526 1525 1524 1523 1521 1519 1517 1515 1512 1510 1507 1504 1501 1498 1495 1491 1483
1471 1472 1474 1476 1480 1483 1486 1489 1492 1495 1498 1501 1504 1507 1510 1513 1516 1518 1519 1521 1522 1523 1523 1523 1523 1523 1522 1521 1520 1518 1516 1514 1512 1510 1507 1505 1502 1499 1495 1492 1489 1485 1480
1470 1471 1473 1475 1478 1480 1483 1486 1489 1492 1495 1498 1501 1504 1507 1510 1512 1514 1516 1517 1518 1519 1519 1520 1519 1519 1518 1516 1515 1513 1511 1509 1507 1504 1502 1499 1496 1492 1489 1486 1482 1479 1474
1469 1469 1471 1473 1475 1477 1480 1483 1485 1488 1492 1495 1498 1501 1503 1506 1508 1510 1512 1513 1514 1515 1515 1515 1515 1514 1513 1512 1510 1508 1506 1504 1501 1498 1495 1492 1489 1486 1483 1479 1475 1472 1468
1467 1467 1468 1469 1471 1474 1476 1479 1481 1484 1488 1491 1494 1496 1499 1502 1504 1506 1508 1509 1510 1510 1511 1510 1510 1509 1508 1506 1504 1502 1500 1498 1495 1492 1489 1486 1482 1479 1476 1472 1468 1464 1460
1464 1465 1465 1466 1468 1470 1472 1475 1477 1480 1483 1486 1489 1492 1495 1497 1500 1502 1503 1505 1505 1506 1506 1505 1505 1503 1502 1500 1499 1496 1494 1491 1488 1485 1482 1478 1475 1471 1468 1464 1460 1457 1453
1461 1461 1462 1463 1464 1466 1468 1470 1473 1476 1479 1482 1484 1487 1491 1493 1495 1497 1499 1500 1501 1501 1501 1500 1499 1498 1496 1494 1492 1489 1486 1483 1480 1477 1474 1470 1467 1463 1460 1456 1452 1449 1445
1457 1457 1458 1459 1460 1462 1463 1466 1468 1471 1474 1477 1480 1483 1486 1488 1491 1493 1494 1495 1496 1496 1495 1494 1493 1492 1490 1488 1486 1483 1479 1475 1472 1468 1465 1461 1458 1454 1451 1447 1444 1441 1437
1453 1453 1454 1455 1457 1458 1460 1462 1464 1466 1469 1472 1475 1478 1481 1484 1486 1488 1489 1490 1490 1490 1490 1489 1487 1485 1483 1481 1479 1475 1471 1467 1464 1460 1456 1453 1449 1446 1442 1438 1434 1431 1428
1449 1450 1451 1453 1454 1455 1457 1459 1461 1463 1465 1467 1470 1473 1476 1479 1481 1483 1484 1485 1485 1485 1484 1482 1481 1479 1476 1474 1471 1468 1463 1459 1455 1452 1449 1445 1441 1437 1434 1429 1425 1422 1419
1446 1448 1449 1450 1452 1453 1455 1456 1458 1459 1461 1463 1466 1469 1472 1475 1477 1479 1480 1480 1480 1479 1478 1476 1474 1471 1469 1467 1463 1460 1455 1450 1447 1443 1440 1436 1433 1429 1426 1422 1417 1413 1410
1444 1445 1447 1448 1450 1451 1453 1454 1455 1457 1459 1461 1463 1466 1468 1471 1473 1474 1475 1475 1474 1473 1471 1469 1467 1464 1461 1459 1455 1452 1447 1442 1438 1434 1431 1428 1424 1421 1418 1415 1410 1406 1402
1442 1444 1445 1447 1449 1450 1451 1452 1454 1455 1457 1459 1461 1463 1466 1468 1469 1470 1470 1469 1468 1466 1464 1462 1459 1456 1453 1450 1447 1444 1439 1435 1430 1426 1422 1419 1416 1413 1410 1407 1403 1399 1395
1440 1442 1444 1446 1447 1448 1450 1451 1452 1453 1455 1457 1459 1461 1463 1464 1465 1465 1464 1463 1462 1460 1457 1454 1451 1448 1445 1441 1438 1435 1431 1427 1423 1418 1414 1411 1408 1405 1402 1398 1395 1391 1388
1439 1441 1443 1444 1445 1447 1448 1449 1451 1452 1454 1455 1457 1458 1459 1460 1460 1460 1459 1457 1455 1453 1450 1446 1443 1439 1436 1433 1429 1426 1422 1418 1415 1410 1406 1403 1399 1396 1392 1389 1386 1383 1379
1437 1439 1441 1442 1444 1445 1446 1448 1449 1451 1452 1454 1455 1455 1456 1456 1455 1454 1452 1451 1448 1446 1442 1439 1435 1431 1428 1425 1421 1417 1413 1410 1406 1402 1397 1394 1391 1387 1384 1381 1378 1375 1372
1435 1437 1439 1440 1442 1443 1445 1446 1447 1449 1450 1451 1451 1451 1451 1450 1449 1447 1446 1443 1441 1439 1435 1432 1428 1423 1419 1416 1414 1410 1406 1402 1398 1394 1390 1386 1382 1379 1376 1373 1371 1368 1365
1433 1435 1437 1438 1440 1441 1443 1444 1445 1446 1447 1448 1447 1447 1446 1445 1443 1440 1438 1435 1433 1430 1427 1423 1420 1415 1411 1407 1404 1401 1397 1394 1390 1387 1381 1378 1375 1372 1369 1367 1364 1361 1359